This is the latest recevied weather packets stored in our database for station/object N7WGJ. If no packets are shown the sender has not sent any weather packets the latest 10 day(s).
| Time | Temp. | Humidity | Pressure | Rain* | Wind** | Luminosity | Snow |
|---|---|---|---|---|---|---|---|
| 1787953902 | 21.11° C | 66% | 1017.3 hPa | 0 mm | - | - | - |
| 1787953301 | 21.11° C | 67% | 1017.3 hPa | 0 mm | - | - | - |
| 1787952703 | 20.56° C | 67% | 1017.4 hPa | 0 mm | - | - | - |
| 1787952085 | 20.56° C | 67% | 1017.5 hPa | 0 mm | - | - | - |
| 1787951487 | 20.56° C | 68% | 1017.7 hPa | 0 mm | - | - | - |
| 1787950901 | 20.56° C | 68% | 1017.7 hPa | 0 mm | - | - | - |
| 1787950292 | 20.56° C | 69% | 1017.9 hPa | 0 mm | - | - | - |
| 1787949692 | 20° C | 72% | 1017.9 hPa | 0 mm | - | - | - |
| 1787949093 | 19.44° C | 73% | 1018 hPa | 0 mm | - | - | - |
| 1787948494 | 19.44° C | 75% | 1018.1 hPa | 0 mm | - | - | - |
| 1787947898 | 18.33° C | 78% | 1018.2 hPa | 0 mm | - | - | - |
| 1787947299 | 18.33° C | 78% | 1018.3 hPa | 0 mm | - | - | - |
| 1787946693 | 18.33° C | 77% | 1018.4 hPa | 0 mm | - | - | - |
| 1787946093 | 18.33° C | 76% | 1018.5 hPa | 0 mm | - | - | - |
| 1787945496 | 18.33° C | 75% | 1018.4 hPa | 0 mm | - | - | - |
| 1787944897 | 18.89° C | 76% | 1018.4 hPa | 0 mm | - | - | - |
| 1787944291 | 18.33° C | 77% | 1018.5 hPa | 0 mm | - | - | - |
| 1787943707 | 18.33° C | 77% | 1018.5 hPa | 0 mm | - | - | - |
| 1787943103 | 17.78° C | 79% | 1018.5 hPa | 0 mm | - | - | - |
| 1787942503 | 17.78° C | 79% | 1018.6 hPa | 0 mm | - | - | - |
| 1787941900 | 17.78° C | 82% | 1018.6 hPa | 0 mm | - | - | - |
| 1787941296 | 17.22° C | 82% | 1018.6 hPa | 0 mm | - | - | - |
| 1787940699 | 17.78° C | 83% | 1018.6 hPa | 0 mm | - | - | - |
| 1787940096 | 17.78° C | 82% | 1018.6 hPa | 0 mm | - | - | - |
| 1787939490 | 17.22° C | 82% | 1018.7 hPa | 0 mm | - | - | - |
* Rain latest hour (hover to see other rain measurements)
** Current wind speed in m/s (hover to see current wind gust speed)